Weather History for Tekamah, NE

Change the Weather History Date:

Tuesday, September 27, 2011

  Actual Average Record
Temperature  
Mean Temperature 65 °F -  
Max Temperature 82 °F 75 °F 94 °F (1956)
Min Temperature 48 °F 46 °F 32 °F (1984)
Growing Degree Days 15 (Base 50)    
Moisture  
Dew Point 48 °F    
Average Humidity 65    
Maximum Humidity 89    
Minimum Humidity 31    
Precipitation  
Precipitation 0.00 in - - ()
Sea Level Pressure  
Sea Level Pressure 29.91 in    
Wind  
Wind Speed 7 mph (NNW)    
Max Wind Speed 17 mph    
Max Gust Speed 17 mph    
Visibility 9 miles    
Events      
Averages and records for this station are not official NWS values.
T = Trace of Precipitation, MM = Missing Value Source: NWS Daily Summary

Daily Weather History Graph

Daily Weather History Graph

Search for Another Location

Airport:

Trip Planner

Search our weather history database for the weather conditions in past years. The results will help you decide how hot, cold, wet, or windy it might be!

Date:

Astronomy

Sep. 27, 2011 Rise Set
Actual Time 7:17 AM CDT 7:13 PM CDT
Civil Twilight 6:49 AM CDT 7:41 PM CDT
Nautical Twilight 6:16 AM CDT 8:13 PM CDT
Astronomical Twilight 5:44 AM CDT 8:46 PM CDT
Moon 7:33 AM CDT (9/27) 7:03 PM CDT (9/27)
Length of Visible Light 12h 51m
Length of Day
11h 56m
Waxing Crescent, 0% of the Moon is Illuminated
Sep 27
Waxing Crescent
Oct 3
First Quarter
Oct 11
Full
Oct 19
Last Quarter
Oct 26
New

Hourly Weather History & Observations

Time (CDT) Temp. Dew Point Humidity Pressure Visibility Wind Dir Wind Speed Gust Speed Precip Events Conditions
1:54 AM 55.9 °F 48.0 °F 75% 29.88 in 10.0 mi NW 8.1 mph - N/A   Clear
2:54 AM 55.0 °F 48.0 °F 77% 29.88 in 10.0 mi NW 6.9 mph - N/A   Clear
3:54 AM 53.1 °F 48.0 °F 83% 29.87 in 9.0 mi NW 5.8 mph - N/A   Clear
4:54 AM 55.0 °F 48.0 °F 77% 29.88 in 10.0 mi NW 10.4 mph - N/A   Clear
5:54 AM 53.1 °F 48.0 °F 83% 29.91 in 9.0 mi NNW 6.9 mph - N/A   Clear
6:54 AM 48.0 °F 45.0 °F 89% 29.94 in 8.0 mi West 3.5 mph - N/A   Clear
7:54 AM 48.0 °F 45.0 °F 89% 29.97 in 6.0 mi Calm Calm - N/A   Clear
8:54 AM 57.9 °F 48.9 °F 72% 29.96 in 8.0 mi Calm Calm - N/A   Clear
9:54 AM 66.9 °F 53.1 °F 61% 29.96 in 10.0 mi NNW 10.4 mph - N/A   Clear
10:54 AM 73.0 °F 55.0 °F 53% 29.96 in 10.0 mi North 11.5 mph 17.3 mph N/A   Clear
11:54 AM 75.9 °F 52.0 °F 43% 29.95 in 10.0 mi North 17.3 mph - N/A   Clear
2:54 PM 81.0 °F 48.9 °F 33% 29.90 in 10.0 mi NNW 11.5 mph 17.3 mph N/A   Clear
3:54 PM 82.0 °F 48.9 °F 31% 29.89 in 10.0 mi North 8.1 mph - N/A   Clear
4:54 PM 81.0 °F 48.0 °F 31% 29.88 in 10.0 mi North 10.4 mph - N/A   Clear
5:54 PM 80.1 °F 46.9 °F 31% 29.87 in 10.0 mi NNW 5.8 mph - N/A   Clear
6:54 PM 73.0 °F 48.0 °F 41% 29.88 in 10.0 mi NNW 4.6 mph - N/A   Clear
7:54 PM 61.0 °F 48.9 °F 64% 29.89 in 10.0 mi NW 5.8 mph - N/A   Clear
8:54 PM 55.0 °F 48.0 °F 77% 29.89 in 10.0 mi Calm Calm - N/A   Clear
9:54 PM 51.1 °F 45.0 °F 80% 29.89 in 10.0 mi Calm Calm - N/A   Clear
10:54 PM 50.0 °F 46.0 °F 86% 29.89 in 8.0 mi Calm Calm - N/A   Clear
11:54 PM 48.9 °F 45.0 °F 86% 29.88 in 7.0 mi Calm Calm - N/A   Clear